FW7124 Weather Reports


Display with metric or nautical units.
time (UTC)temp
F
wind
direction
speed
MPH
gust
MPH
rain 1hr
in
rain 24hr
in
rain mn
in
humidity
%
barometer
mb
20260505124202 57 63 0.0 2.0 0.00 0.00 0.00 74 1013.6
20260505123202 57 0 0.0 0.0 0.00 0.00 0.00 71 1013.5
20260505122652 57 17 0.0 3.0 0.00 0.00 0.00 72 1013.5
20260505121202 57 5 1.0 3.0 0.00 0.00 0.00 71 1013.5
20260505120202 57 342 0.0 3.0 0.00 0.00 0.00 73 1013.6
20260505115202 57 18 1.0 3.0 0.00 0.00 0.00 72 1013.4
20260505114202 58 298 0.0 2.0 0.00 0.00 0.00 74 1013.6
20260505113202 56 329 0.0 1.0 0.00 0.00 0.00 77 1013.5
20260505112202 56 338 0.0 2.0 0.00 0.00 0.00 77 1013.7
20260505111202 56 346 0.0 2.0 0.00 0.00 0.00 77 1013.8
20260505110203 56 92 0.0 2.0 0.00 0.00 0.00 77 1013.8
20260505101636 56 20 0.0 2.0 0.00 0.00 0.00 79 1014.1
20260505100153 55 53 0.0 3.0 0.00 0.00 0.00 78 1014.1
20260505095152 55 0 0.0 2.0 0.00 0.00 0.00 77 1014.1
20260505094152 55 5 0.0 2.0 0.00 0.00 0.00 80 1014.2
20260505093151 54 344 0.0 2.0 0.00 0.00 0.00 80 1014.4
20260505092151 55 9 0.0 2.0 0.00 0.00 0.00 80 1014.4
20260505091635 55 348 0.0 3.0 0.00 0.00 0.00 81 1014.4
20260505090639 55 341 0.0 3.0 0.00 0.00 0.00 80 1014.3
20260505085152 54 105 0.0 0.0 0.00 0.00 0.00 82 1014.3
20260505084149 53 14 0.0 0.0 0.00 0.00 0.00 85 1014.5
20260505083149 52 30 0.0 0.0 0.00 0.00 0.00 85 1014.5
20260505082150 52 30 0.0 0.0 0.00 0.00 0.00 85 1014.6
20260505081146 52 30 0.0 0.0 0.00 0.00 0.00 84 1014.6
20260505080142 53 34 0.0 0.0 0.00 0.00 0.00 83 1014.6
20260505075638 53 21 0.0 0.0 0.00 0.00 0.00 84 1014.4
20260505074145 53 349 0.0 0.0 0.00 0.00 0.00 86 1014.3
20260505073139 52 19 0.0 0.0 0.00 0.00 0.00 86 1014.3
20260505072139 52 71 0.0 0.0 0.00 0.00 0.00 87 1014.5
20260505071139 52 0 0.0 0.0 0.00 0.00 0.00 88 1014.6
20260505070141 51 13 0.0 0.0 0.00 0.00 0.00 88 1014.6
20260505065138 51 5 0.0 0.0 0.00 0.00 0.00 89 1014.7
20260505064136 50 5 0.0 0.0 0.00 0.00 0.00 91 1014.6
20260505063135 50 23 0.0 0.0 0.00 0.00 0.00 92 1014.6
20260505062136 49 42 0.0 0.0 0.00 0.00 0.00 92 1014.5
20260505061619 49 42 0.0 0.0 0.00 0.00 0.00 92 1014.5
20260505060137 49 42 0.0 0.0 0.00 0.00 0.00 92 1014.5
20260505055135 49 42 0.0 0.0 0.00 0.00 0.00 92 1014.7
20260505054141 48 42 0.0 0.0 0.00 0.00 0.00 92 1014.5
20260505053135 48 42 0.0 0.0 0.00 0.00 0.00 91 1014.7
20260505052133 49 42 0.0 0.0 0.00 0.00 0.00 91 1014.7
20260505051134 49 316 0.0 0.0 0.00 0.00 0.00 91 1014.7
20260505050134 49 316 0.0 0.0 0.00 0.00 0.00 91 1014.5
20260505041140 50 315 0.0 0.0 0.00 0.00 0.00 91 1014.9
20260505040131 50 345 0.0 0.0 0.00 0.00 0.00 91 1014.9
20260505035131 50 345 0.0 0.0 0.00 0.00 0.00 91 1014.8
20260505034131 50 345 0.0 0.0 0.00 0.00 0.00 91 1014.8
20260505032129 50 345 0.0 0.0 0.00 0.00 0.00 91 1015.0
20260505031129 50 345 0.0 0.0 0.00 0.00 0.00 90 1014.9
20260505030129 50 345 0.0 0.0 0.00 0.00 0.00 90 1014.9
20260505025604 51 345 0.0 0.0 0.00 0.00 0.00 91 1014.9
20260505024130 51 345 0.0 0.0 0.00 0.00 0.00 91 1015.0
20260505023129 51 345 0.0 0.0 0.00 0.00 0.00 90 1015.0
20260505022129 51 345 0.0 0.0 0.00 0.00 0.00 90 1014.9
20260505021130 51 345 0.0 0.0 0.00 0.00 0.00 89 1014.9
20260505020129 51 345 0.0 0.0 0.00 0.00 0.00 89 1015.0
20260505015127 52 345 0.0 0.0 0.00 0.00 0.00 89 1015.0
20260505014128 52 345 0.0 0.0 0.00 0.00 0.00 88 1015.1
20260505013127 52 345 0.0 0.0 0.00 0.00 0.00 88 1015.3
20260505012128 53 345 0.0 0.0 0.00 0.00 0.00 87 1015.3
20260505011127 53 345 0.0 0.0 0.00 0.00 0.00 87 1015.3
20260505010127 53 345 0.0 0.0 0.00 0.00 0.00 87 1015.4
20260505005126 53 345 0.0 0.0 0.00 0.00 0.00 86 1015.5
20260505004127 53 345 0.0 0.0 0.00 0.00 0.00 87 1015.6
20260505003127 53 345 0.0 0.0 0.00 0.00 0.00 86 1015.6
20260505002126 54 345 0.0 0.0 0.00 0.00 0.00 86 1015.7
20260505001125 54 345 0.0 0.0 0.00 0.00 0.00 86 1015.8
20260505000125 54 345 0.0 0.0 0.00 0.00 0.00 86 1015.7
20260504234125 54 345 0.0 0.0 0.00 0.00 0.00 86 1015.8
20260504233124 54 345 0.0 0.0 0.00 0.00 0.00 85 1015.8
20260504232121 54 345 0.0 0.0 0.00 0.00 0.00 86 1015.9
20260504231601 54 345 0.0 0.0 0.00 0.00 0.00 85 1015.9
20260504230600 54 345 0.0 0.0 0.00 0.00 0.00 84 1015.9
20260504225552 55 345 0.0 0.0 0.00 0.00 0.00 85 1015.8
20260504224114 55 345 0.0 0.0 0.00 0.00 0.00 85 1015.9
20260504223114 55 346 0.0 0.0 0.00 0.00 0.00 84 1015.9
20260504222113 55 346 0.0 0.0 0.00 0.00 0.00 84 1015.9
20260504221121 55 346 0.0 0.0 0.00 0.00 0.00 85 1015.9
20260504220113 55 346 0.0 0.0 0.00 0.00 0.00 84 1016.0
20260504215113 55 346 0.0 1.0 0.00 0.00 0.00 84 1016.1
20260504214114 55 346 0.0 1.0 0.00 0.00 0.00 84 1016.0
20260504213113 55 331 0.0 1.0 0.00 0.00 0.00 84 1016.1
20260504212115 55 324 0.0 1.0 0.00 0.00 0.00 84 1016.2
20260504211113 56 324 0.0 1.0 0.00 0.00 0.00 85 1016.2
20260504210114 56 338 0.0 1.0 0.00 0.00 0.00 84 1016.1
20260504205107 56 349 0.0 1.0 0.00 0.00 0.00 84 1016.1
20260504204109 56 349 0.0 1.0 0.00 0.00 0.00 84 1016.1
20260504203551 56 349 0.0 1.0 0.00 0.00 0.00 84 1016.1
20260504202104 56 349 0.0 1.0 0.00 0.00 0.00 84 1016.0
20260504201103 56 349 0.0 1.0 0.00 0.00 0.00 84 1015.9
20260504200105 56 349 0.0 1.0 0.00 0.00 0.00 84 1015.8
20260504195543 56 349 0.0 1.0 0.00 0.00 0.00 83 1015.7
20260504194102 56 349 0.0 1.0 0.00 0.00 0.00 83 1015.7
20260504193102 56 349 0.0 1.0 0.00 0.00 0.00 83 1015.6
20260504192546 57 349 0.0 1.0 0.00 0.00 0.00 83 1015.6
20260504191541 57 349 0.0 1.0 0.00 0.00 0.00 83 1015.6
20260504184103 57 347 0.0 1.0 0.00 0.00 0.00 82 1015.3
20260504183056 57 347 0.0 1.0 0.00 0.00 0.00 81 1015.3
20260504182107 57 347 0.0 1.0 0.00 0.00 0.00 81 1015.2
20260504181055 57 351 0.0 1.0 0.00 0.00 0.00 81 1015.1
20260504175054 58 349 0.0 2.0 0.00 0.00 0.00 80 1015.2
20260504174055 58 349 1.0 2.0 0.00 0.00 0.00 80 1015.2
20260504173059 58 0 0.0 2.0 0.00 0.00 0.00 79 1015.0
20260504172053 59 337 0.0 2.0 0.00 0.00 0.00 80 1015.0
20260504171541 59 0 0.0 2.0 0.00 0.00 0.00 80 1015.0
20260504151048 61 34 0.0 1.0 0.00 0.00 0.00 74 1014.8
20260504141049 64 87 0.0 3.0 0.00 0.00 0.00 69 1015.0